contact:dominique.lefevre@mio.osupytheas.fr, maurice.libes@osupytheas.fr
Project:EMSO Ligure-ouest http://www.emso-fr.org/EMSO-France
Sensor Aquadopp, line 04 Serial AQD8517 
DOI : "https://doi.org/10.17882/74513; https://doi.org/10.17882/83244" 
Title:EMSO Ligure Ouest : Data ligne ALBATROSS capteur AQUADOPP - deploiement 2021
Id,Date,Profondeur,Latitude,Longitude,X_East,Y_North,Z_Up,Amplitude_X,Amplitude_Y,Amplitude_Z,Batterie,SoundSpeed,Heading,Pitch,Roll,Pressure,Temperature,Speed,Direction
, , m, degrees North, degrees East, m.s-1, m.s-1,m.s-1, 1, 1, 1, Volt, m.s-1, degree, degree, degree, dbar, degree_C, m.s-1, degree
01,2022-03-26T21:30:00,500.0,42.79,6.0312,-0.065,0.037,0.005,53.0,52.0,49.0,12.1,1505.5,326.5,-0.2,0.6,451.877,13.54,0.074,299.7
01,2022-03-26T22:00:00,500.0,42.79,6.0312,-0.069,0.035,0.013,54.0,51.0,50.0,12.1,1505.5,331.3,-0.2,0.7,451.896,13.53,0.077,296.9
01,2022-03-26T22:30:00,500.0,42.79,6.0312,-0.067,0.031,-0.019,55.0,53.0,51.0,12.1,1505.5,331.2,-0.3,0.7,451.905,13.54,0.073,294.8
01,2022-03-26T23:00:00,500.0,42.79,6.0312,-0.057,0.042,-0.011,55.0,53.0,50.0,12.1,1505.6,325.7,-0.1,0.6,451.88,13.58,0.07,306.4
01,2022-03-26T23:30:00,500.0,42.79,6.0312,-0.069,0.036,-0.001,54.0,51.0,54.0,12.1,1505.6,324.5,-0.3,0.7,451.933,13.58,0.077,297.6
01,2022-03-27T00:00:00,500.0,42.79,6.0312,-0.063,0.035,0.0,54.0,52.0,53.0,12.1,1505.7,333.7,0.1,0.6,451.911,13.59,0.072,299.1
01,2022-03-27T00:30:00,500.0,42.79,6.0312,-0.065,0.027,0.024,56.0,51.0,51.0,12.1,1505.7,334.0,-0.3,0.6,451.959,13.59,0.07,292.6
01,2022-03-27T01:00:00,500.0,42.79,6.0312,-0.074,0.04,-0.007,53.0,51.0,53.0,12.1,1505.7,337.7,-0.4,0.7,451.94,13.6,0.084,298.4
01,2022-03-27T01:30:00,500.0,42.79,6.0312,-0.053,0.04,0.017,53.0,50.0,51.0,12.1,1505.6,342.2,-0.3,0.6,452.024,13.57,0.066,307.0
01,2022-03-27T02:00:00,500.0,42.79,6.0312,-0.066,0.054,-0.005,56.0,53.0,52.0,12.1,1505.6,338.6,-0.1,0.6,451.966,13.56,0.085,309.3
01,2022-03-27T02:30:00,500.0,42.79,6.0312,-0.074,0.049,-0.01,58.0,51.0,52.0,12.1,1505.7,331.2,-0.2,0.5,452.031,13.6,0.088,303.5
01,2022-03-27T03:00:00,500.0,42.79,6.0312,-0.059,0.038,0.009,52.0,49.0,51.0,12.1,1505.7,337.5,-0.3,0.7,452.057,13.59,0.07,302.8
01,2022-03-27T03:30:00,500.0,42.79,6.0312,-0.067,0.045,0.013,56.0,50.0,49.0,12.1,1505.6,344.8,-0.2,0.7,452.004,13.58,0.08,303.9
01,2022-03-27T04:00:00,500.0,42.79,6.0312,-0.074,0.058,0.02,55.0,48.0,51.0,12.1,1505.7,344.5,-0.4,0.7,452.013,13.59,0.094,308.1
01,2022-03-27T04:30:00,500.0,42.79,6.0312,-0.065,0.065,0.005,56.0,51.0,51.0,12.1,1505.7,348.5,-0.1,0.5,451.978,13.6,0.091,315.0
01,2022-03-27T05:00:00,500.0,42.79,6.0312,-0.064,0.055,0.007,56.0,48.0,51.0,12.1,1505.7,352.9,-0.4,0.6,452.047,13.59,0.084,310.7
01,2022-03-27T05:30:00,500.0,42.79,6.0312,-0.053,0.058,0.007,54.0,50.0,48.0,12.1,1505.7,356.3,-0.3,0.5,452.029,13.59,0.078,317.6
01,2022-03-27T06:00:00,500.0,42.79,6.0312,-0.069,0.056,-0.013,53.0,49.0,50.0,12.1,1505.7,348.5,-0.3,0.7,452.008,13.6,0.088,309.1
01,2022-03-27T06:30:00,500.0,42.79,6.0312,-0.054,0.056,0.004,53.0,51.0,51.0,12.1,1505.7,348.1,-0.4,0.8,451.953,13.6,0.077,316.0
01,2022-03-27T07:00:00,500.0,42.79,6.0312,-0.053,0.058,-0.016,53.0,51.0,51.0,12.1,1505.7,350.0,-0.2,0.7,451.944,13.6,0.078,317.6
01,2022-03-27T07:30:00,500.0,42.79,6.0312,-0.04,0.072,0.016,56.0,50.0,50.0,12.1,1505.7,350.2,-0.3,0.7,451.942,13.61,0.082,330.9
01,2022-03-27T08:00:00,500.0,42.79,6.0312,-0.04,0.063,-0.001,58.0,51.0,50.0,12.1,1505.7,349.3,-0.2,0.7,451.964,13.61,0.074,327.6
01,2022-03-27T08:30:00,500.0,42.79,6.0312,-0.053,0.046,0.0,54.0,50.0,50.0,12.1,1505.7,340.0,-0.4,0.6,451.925,13.59,0.07,311.0
01,2022-03-27T09:00:00,500.0,42.79,6.0312,-0.046,0.053,0.004,59.0,52.0,53.0,12.1,1505.6,343.7,-0.3,0.6,451.917,13.58,0.07,319.0
01,2022-03-27T09:30:00,500.0,42.79,6.0312,-0.059,0.055,0.0,54.0,52.0,50.0,12.1,1505.6,348.4,-0.3,0.6,451.839,13.58,0.08,313.0
01,2022-03-27T10:00:00,500.0,42.79,6.0312,-0.048,0.061,0.0,56.0,50.0,52.0,12.1,1505.7,352.1,0.1,0.6,451.898,13.59,0.077,321.8
01,2022-03-27T10:30:00,500.0,42.79,6.0312,-0.052,0.061,-0.004,54.0,51.0,50.0,12.1,1505.6,355.2,-0.5,0.7,451.837,13.58,0.08,319.6
01,2022-03-27T11:00:00,500.0,42.79,6.0312,-0.034,0.046,0.003,55.0,49.0,50.0,12.1,1505.7,358.1,0.0,0.6,451.841,13.61,0.057,323.5
01,2022-03-27T11:30:00,500.0,42.79,6.0312,-0.032,0.04,-0.02,52.0,50.0,51.0,12.1,1505.7,2.6,-0.2,0.7,451.862,13.61,0.051,321.3
01,2022-03-27T12:00:00,500.0,42.79,6.0312,-0.045,0.057,-0.022,54.0,49.0,50.0,12.1,1505.7,9.7,-0.1,0.7,451.869,13.59,0.072,321.7
01,2022-03-27T12:30:00,500.0,42.79,6.0312,-0.041,0.038,0.02,55.0,52.0,52.0,12.1,1505.7,9.9,-0.3,0.6,451.912,13.59,0.055,312.8
01,2022-03-27T13:00:00,500.0,42.79,6.0312,-0.024,0.031,0.0,54.0,50.0,53.0,12.1,1505.7,35.6,0.0,0.6,451.9,13.61,0.039,322.3
01,2022-03-27T13:30:00,500.0,42.79,6.0312,-0.031,0.038,-0.006,55.0,51.0,49.0,12.1,1505.7,41.1,-0.2,0.5,451.863,13.6,0.049,320.8
01,2022-03-27T14:00:00,500.0,42.79,6.0312,-0.009,0.041,-0.008,56.0,50.0,51.0,12.1,1505.7,41.2,-0.2,0.6,451.903,13.59,0.041,347.6
01,2022-03-27T14:30:00,500.0,42.79,6.0312,0.004,0.039,-0.006,56.0,53.0,55.0,12.1,1505.6,41.5,-0.2,0.7,451.875,13.57,0.039,5.9
01,2022-03-27T15:00:00,500.0,42.79,6.0312,0.01,0.043,0.006,52.0,53.0,53.0,12.1,1505.7,42.4,-0.1,0.6,451.865,13.59,0.044,13.1
01,2022-03-27T15:30:00,500.0,42.79,6.0312,-0.003,0.007,0.016,51.0,51.0,52.0,12.1,1505.7,39.1,-0.2,0.7,451.896,13.59,0.007,336.8
01,2022-03-27T16:00:00,500.0,42.79,6.0312,-0.013,-0.006,0.018,54.0,51.0,50.0,12.1,1505.6,23.6,-0.2,0.7,451.924,13.58,0.014,245.2
01,2022-03-27T16:30:00,500.0,42.79,6.0312,-0.028,-0.018,0.008,53.0,49.0,49.0,12.1,1505.6,20.0,-0.1,0.7,451.873,13.58,0.033,237.3
01,2022-03-27T17:00:00,500.0,42.79,6.0312,-0.038,-0.009,0.015,56.0,52.0,51.0,12.1,1505.6,322.1,-0.3,0.6,451.905,13.58,0.039,256.7
01,2022-03-27T17:30:00,500.0,42.79,6.0312,-0.05,-0.013,-0.003,55.0,51.0,50.0,12.1,1505.7,317.9,-0.2,0.6,451.891,13.6,0.051,255.4
01,2022-03-27T18:00:00,500.0,42.79,6.0312,-0.077,-0.022,0.007,56.0,51.0,50.0,12.1,1505.7,296.3,-0.2,0.7,451.894,13.6,0.08,254.1
01,2022-03-27T18:30:00,500.0,42.79,6.0312,-0.08,0.002,0.002,57.0,51.0,52.0,12.1,1505.7,299.5,-0.2,0.7,451.88,13.59,0.08,271.4
01,2022-03-27T19:00:00,500.0,42.79,6.0312,-0.078,0.012,-0.004,56.0,52.0,51.0,12.1,1505.7,305.2,-0.2,0.7,451.868,13.59,0.078,278.7
01,2022-03-27T19:30:00,500.0,42.79,6.0312,-0.093,0.004,-0.01,55.0,51.0,50.0,12.1,1505.7,299.1,-0.3,0.5,451.813,13.59,0.093,272.5
01,2022-03-27T20:00:00,500.0,42.79,6.0312,-0.08,0.058,0.004,57.0,51.0,52.0,12.1,1505.7,322.6,-0.2,0.6,451.861,13.59,0.098,305.9
01,2022-03-27T20:30:00,500.0,42.79,6.0312,-0.085,0.024,0.008,55.0,49.0,53.0,12.1,1505.7,316.1,-0.3,0.7,451.797,13.6,0.088,285.8
